Home   Weather   USA   Annapolis   Past weeks
Flag for USA

Past Weather in Annapolis, Maryland, USA — Yesterday and Last 2 Weeks

Currently: 58 °F. Sunny. (Weather station: Annapolis - United States Naval Academy, USA). See more current weather

Past Weather in Annapolis — Graph

°F

Annapolis Temperature Yesterday

Maximum temperature yesterday: 59 °F (at 4:54 pm)
Minimum temperature yesterday: 53 °F (at 5:54 am)
Average temperature yesterday: 55 °F

High & Low Weather Summary for the Past Weeks

 TemperatureHumidityPressure
High83 °F (Mar 26, 2:54 pm)100% (Mar 28, 6:29 am)30.47 "Hg (Mar 28, 6:29 am)
Low33 °F (Apr 3, 6:54 am)23% (Mar 26, 2:54 pm)29.51 "Hg (Mar 28, 4:54 pm)
Average54 °F67%30.06 "Hg
* Reported Mar 26 12:54 pm — Apr 10 12:54 pm, Annapolis. Weather by CustomWeather, © 2021

Note: Actual official high and low records may vary slightly from our data, if they occured in-between our weather recording intervals... More about our weather records

Annapolis Weather History for the Previous 24 Hours

Scroll right to see more
 ConditionsComfort  
Time TempWeatherWind HumidityBarometerVisibility
12:54 pm
Sat, Apr 10
58 °FSunny.10 mph97%29.98 "Hg8 mi
12:03 pm58 °FFog.9 mph97%29.99 "Hg6 mi
11:54 am59 °FPartly sunny.8 mph93%30.00 "Hg7 mi
11:22 am59 °FOvercast.No wind87%30.01 "Hg10 mi
10:54 am57 °FLow clouds.No wind90%30.01 "Hg8 mi
10:18 am55 °FFog.7 mph100%30.00 "Hg4 mi
10:06 am54 °FFog.7 mph100%30.00 "Hg2 mi
9:05 am54 °FFog.3 mph100%30.00 "Hg1 mi
8:54 am54 °FFog.5 mph100%30.00 "Hg2 mi
8:34 am54 °FFog.5 mph100%30.00 "Hg2 mi
8:18 am54 °FFog.3 mph100%30.01 "Hg0 mi
8:08 am54 °FFog.5 mph100%30.01 "Hg1 mi
7:54 am54 °FFog.6 mph100%30.02 "Hg1 mi
7:12 am54 °FFog.5 mph100%30.01 "Hg1 mi
7:04 am54 °FFog.3 mph100%30.01 "Hg2 mi
5:54 am53 °FFog.No wind100%30.01 "Hg3 mi
4:54 am54 °FFog.No wind100%30.02 "Hg4 mi
4:20 am53 °FFog.6 mph100%30.00 "Hg3 mi
3:54 am53 °FFog.No wind100%30.03 "Hg2 mi
3:27 am54 °FFog.3 mph100%30.04 "Hg2 mi
3:02 am54 °FFog.3 mph100%30.04 "Hg2 mi
2:35 am54 °FFog.5 mph100%30.04 "Hg3 mi
1:54 am54 °FOvercast.3 mph97%30.04 "Hg8 mi
12:54 am54 °FOvercast.3 mph97%30.05 "Hg9 mi
11:54 pm
Fri, Apr 9
54 °FOvercast.3 mph97%30.06 "Hg10 mi
10:54 pm55 °FOvercast.7 mph93%30.07 "Hg10 mi
10:34 pm55 °FMostly cloudy.6 mph93%30.07 "Hg10 mi
9:54 pm55 °FOvercast.9 mph90%30.07 "Hg10 mi
8:54 pm56 °FOvercast.7 mph90%30.08 "Hg10 mi
7:54 pm57 °FOvercast.14 mph87%30.07 "Hg10 mi
6:54 pm58 °FOvercast.9 mph87%30.07 "Hg10 mi
5:54 pm59 °FOvercast.3 mph87%30.08 "Hg10 mi
4:54 pm59 °FOvercast.7 mph87%30.08 "Hg10 mi
3:54 pm58 °FOvercast.7 mph90%30.07 "Hg10 mi
3:05 pm57 °FOvercast.3 mph90%30.08 "Hg10 mi
2:54 pm56 °FOvercast.5 mph93%30.09 "Hg10 mi
Weather by CustomWeather, © 2021

See weather overview